This demonstration page uses our WeatherBlox Daily Observations layout. Learn more.

Left ArrowRight Arrow

47.50024, -111.30081

Hourly Observations for April 17, 2019

Temp ( °F °C ) Dew Point ( °F °C ) Humidity (%) Winds ( mph kmh ) Pressure ( in mb ) Visibility ( mi km ) Precip ( " mm )
12:53 am 00:53 Clear 38 3.3 30 -1.1 73 73 SW 13 20 30.00 1016 10 16 0.00 0.00
1:53 am 01:53 Clear 36 2.2 30 -1.1 79 79 SW 12 19 30.01 1016 10 16 0.00 0.00
2:53 am 02:53 Clear 36 2.2 29 -1.7 76 76 SW 12 19 30.01 1016 10 16 0.00 0.00
3:53 am 03:53 Clear 35 1.7 28 -2.2 76 76 SW 12 19 30.00 1016 10 16 0.00 0.00
4:53 am 04:53 Clear 37 2.8 29 -1.7 73 73 SW 13 20 29.99 1016 10 16 0.00 0.00
5:53 am 05:53 Mostly Clear 38 3.3 29 -1.7 70 70 SW 13 20 29.99 1016 10 16 0.00 0.00
6:53 am 06:53 Mostly Sunny 40 4.4 30 -1.1 68 68 WSW 14 22 29.98 1015 10 16 0.00 0.00
7:53 am 07:53 Cloudy 43 6.1 31 -0.6 63 63 SW 10 17 30.00 1016 10 16 0.00 0.00
8:53 am 08:53 Cloudy 44 6.7 32 0 63 63 SW 15 24 30.00 1016 10 16 0.00 0.00
9:53 am 09:53 Cloudy 46 7.8 32 0 58 58 SW 16 26 29.99 1016 10 16 0.00 0.00
10:53 am 10:53 Cloudy 49 9.4 33 0.6 55 55 WSW 18 30 29.99 1016 10 16 0.00 0.00
11:53 am 11:53 Cloudy 52 11.1 31 -0.6 45 45 W 25 41 29.98 1015 10 16 0.00 0.00
12:53 pm 12:53 Cloudy 53 11.7 29 -1.7 40 40 W 20 31 29.98 1015 10 16 0.00 0.00
1:53 pm 13:53 Mostly Cloudy 53 11.7 30 -1.1 41 41 WNW 14 22 29.98 1015 10 16 0.00 0.00
2:53 pm 14:53 Mostly Cloudy 58 14.4 26 -3.3 29 29 WNW 26 43 29.97 1015 10 16 0.00 0.00
3:53 pm 15:53 Mostly Cloudy 56 13.3 25 -3.9 30 30 W 23 37 29.99 1016 10 16 0.00 0.00
4:53 pm 16:53 Mostly Cloudy 54 12.2 26 -3.3 34 34 W 22 35 29.99 1016 10 16 0.00 0.00
5:53 pm 17:53 Mostly Cloudy 56 13.3 25 -3.9 30 30 W 26 43 30.00 1016 10 16 0.00 0.00
6:53 pm 18:53 Mostly Sunny 54 12.2 24 -4.4 31 31 W 29 46 30.02 1017 10 16 0.00 0.00
7:53 pm 19:53 Sunny 50 10 25 -3.9 38 38 W 20 31 30.04 1017 10 16 0.00 0.00
8:53 pm 20:53 Clear 43 6.1 26 -3.3 51 51 WSW 9 15 30.08 1019 10 16 0.00 0.00
9:53 pm 21:53 Clear 42 5.6 27 -2.8 55 55 WSW 14 22 30.11 1020 10 16 0.00 0.00
10:53 pm 22:53 Clear 41 5 27 -2.8 57 57 WSW 14 22 30.14 1021 10 16 0.00 0.00
11:53 pm 23:53 Clear 40 4.4 28 -2.2 63 63 WSW 14 22 30.16 1021 10 16 0.00 0.00

Powered by AerisWeather